This is the latest recevied weather packets stored in our database for station/object WZ8H. If no packets are shown the sender has not sent any weather packets the latest 10 day(s).
| Time | Temp. | Humidity | Pressure | Rain* | Wind** | Luminosity | Snow |
|---|---|---|---|---|---|---|---|
| 1778175933 | 12.78° C | 61% | 1011.8 hPa | 0 mm | - | 232 W/m² | - |
| 1778175598 | 12.78° C | 59% | 1011.7 hPa | 0 mm | - | 234 W/m² | - |
| 1778175296 | 13.33° C | 59% | 1011.8 hPa | 0 mm | - | 248 W/m² | - |
| 1778174969 | 13.33° C | 58% | 1011.8 hPa | 0 mm | - | 262 W/m² | - |
| 1778174667 | 13.89° C | 58% | 1011.8 hPa | 0 mm | - | 283 W/m² | - |
| 1778174341 | 13.33° C | 60% | 1011.9 hPa | 0 mm | - | 1104 W/m² | - |
| 1778174041 | 13.33° C | 57% | 1012.1 hPa | 0 mm | - | 323 W/m² | - |
| 1778173708 | 13.33° C | 60% | 1012.1 hPa | 0 mm | - | 278 W/m² | - |
| 1778173405 | 13.33° C | 58% | 1012.2 hPa | 0 mm | - | 1167 W/m² | - |
| 1778173077 | 13.33° C | 55% | 1012.2 hPa | 0 mm | - | 315 W/m² | - |
| 1778172773 | 13.33° C | 57% | 1012.3 hPa | 0 mm | - | 536 W/m² | - |
| 1778172464 | 13.33° C | 58% | 1012.3 hPa | 0 mm | - | 612 W/m² | - |
| 1778172163 | 12.78° C | 58% | 1012.3 hPa | 0 mm | - | 464 W/m² | - |
| 1778171835 | 12.78° C | 59% | 1012.3 hPa | 0 mm | - | 422 W/m² | - |
| 1778171532 | 13.33° C | 58% | 1012.3 hPa | 0 mm | - | 415 W/m² | - |
| 1778171210 | 13.33° C | 60% | 1012.4 hPa | 0 mm | - | 411 W/m² | - |
| 1778170878 | 13.33° C | 58% | 1012.3 hPa | 0 mm | - | 336 W/m² | - |
| 1778170575 | 13.89° C | 57% | 1012.3 hPa | 0 mm | - | 1169 W/m² | - |
| 1778170271 | 13.89° C | 57% | 1012.3 hPa | 0 mm | - | 1169 W/m² | - |
| 1778169975 | 13.33° C | 60% | 1012.3 hPa | 0 mm | - | 1116 W/m² | - |
| 1778169665 | 13.33° C | 61% | 1012.2 hPa | 0 mm | - | 341 W/m² | - |
| 1778169367 | 13.33° C | 62% | 1012.2 hPa | 0 mm | - | 1035 W/m² | - |
| 1778169059 | 13.33° C | 65% | 1012.3 hPa | 0 mm | - | 983 W/m² | - |
| 1778168760 | 12.78° C | 64% | 1012.4 hPa | 0 mm | - | 800 W/m² | - |
| 1778168430 | 12.78° C | 66% | 1012.4 hPa | 0 mm | - | 193 W/m² | - |
* Rain latest hour (hover to see other rain measurements)
** Current wind speed in m/s (hover to see current wind gust speed)